User: anonymous   Login
Location: Ash Swamp
(41.5170°N, 74.6157°W)
Time: 11:50:09
(UTC+00:00)
Language:

Cosmos 1340 - Orbit

View from above orbital plane
View from above orbital plane
View from above satellite
View from above satellite

Ground track
Ground track

The orbit data is extracted from the following two-line orbital elements,

1 13067U 82013A   20263.04421157  .00000463  00000-0  19751-4 0  9998
2 13067  81.1886 185.3167 0004343 112.8109 247.3582 15.20879634108586
Epoch (UTC): 19 September 2020 01:03:39
Eccentricity: 0.0004343
inclination: 81.1886°
perigee height: 500 km
apogee height: 506 km
right ascension of ascending node: 185.3167°
argument of perigee: 112.8109°
revolutions per day: 15.20879634
mean anomaly at epoch: 247.3582°
orbit number at epoch: 10858

The dashed part of the orbit path shows where the satellite is in the earth's shadow,  

DLR